• In Moldova, Republic
  • List of Countries
  • For 7 days
  • Water Temperature
  • Satellite Maps
  • Weather Map
  • Weather Widgets
  • user-avatar
    Login

    Hourly Weather Djelfa

    Today, 24 September, Monday

    Time Temperature Precipitation Wind Pressure Humidity
    00:00 +21°C° 0 mm 0 mps 670 mmHg 42%
    01:00 +21°C° 0 mm 0 mps 670 mmHg 43%
    02:00 +20°C° 0 mm 0 mps 669 mmHg 44%
    03:00 +20°C° 0 mm 0 mps 669 mmHg 46%
    04:00 +20°C° 0 mm 0 mps 669 mmHg 47%
    05:00 +19°C° 0 mm 0 mps 669 mmHg 48%
    06:00 +19°C° 0 mm 0 mps 669 mmHg 49%
    07:00 +20°C° 0 mm 0 mps 669 mmHg 43%
    08:00 +24°C° 0 mm 1 mps 670 mmHg 38%
    09:00 +26°C° 0 mm 1 mps 671 mmHg 33%
    10:00 +26°C° 0 mm 1 mps 671 mmHg 31%
    11:00 +27°C° 0 mm 1 mps 671 mmHg 28%
    12:00 +28°C° 0 mm 1 mps 671 mmHg 26%
    13:00 +29°C° 0 mm 1 mps 670 mmHg 25%
    14:00 +29°C° 0 mm 1 mps 670 mmHg 24%
    15:00 +29°C° 0 mm 2 mps 670 mmHg 23%
    16:00 +29°C° 0 mm 2 mps 669 mmHg 25%
    17:00 +28°C° 0 mm 3 mps 669 mmHg 26%
    18:00 +28°C° 0 mm 3 mps 669 mmHg 27%
    19:00 +27°C° 0 mm 2 mps 670 mmHg 30%
    20:00 +27°C° 0 mm 2 mps 670 mmHg 32%
    21:00 +26°C° 0 mm 1 mps 670 mmHg 34%
    22:00 +25°C° 0 mm 1 mps 670 mmHg 36%
    23:00 +25°C° 0 mm 1 mps 670 mmHg 37%

    Tomorrow, 25 September, Tuesday

    Time Temperature Precipitation Wind Pressure Humidity
    00:00 +24°C° 0 mm 1 mps 669 mmHg 38%
    01:00 +24°C° 0 mm 1 mps 669 mmHg 40%
    02:00 +23°C° 0 mm 1 mps 669 mmHg 41%
    03:00 +23°C° 0 mm 1 mps 669 mmHg 43%
    04:00 +22°C° 0 mm 1 mps 669 mmHg 44%
    05:00 +22°C° 0 mm 1 mps 669 mmHg 45%
    06:00 +22°C° 0 mm 1 mps 669 mmHg 46%
    07:00 +23°C° 0 mm 1 mps 669 mmHg 41%
    08:00 +25°C° 0 mm 1 mps 670 mmHg 37%
    09:00 +26°C° 0 mm 1 mps 671 mmHg 33%
    10:00 +27°C° 0 mm 1 mps 671 mmHg 31%
    11:00 +28°C° 0 mm 2 mps 671 mmHg 29%
    12:00 +29°C° 0 mm 2 mps 670 mmHg 27%
    13:00 +29°C° 0 mm 2 mps 670 mmHg 26%
    14:00 +29°C° 0 mm 2 mps 670 mmHg 26%
    15:00 +29°C° 0 mm 3 mps 669 mmHg 25%
    16:00 +29°C° 0 mm 3 mps 669 mmHg 26%
    17:00 +28°C° 0 mm 3 mps 670 mmHg 28%
    18:00 +28°C° 0 mm 4 mps 670 mmHg 29%
    19:00 +27°C° 0 mm 4 mps 670 mmHg 33%
    20:00 +26°C° 0 mm 4 mps 670 mmHg 36%
    21:00 +26°C° 0 mm 5 mps 670 mmHg 40%
    22:00 +25°C° 0 mm 4 mps 670 mmHg 44%
    23:00 +23°C° 0 mm 4 mps 670 mmHg 47%

    Day after tomorrow, 26 September, Wednesday

    Time Temperature Precipitation Wind Pressure Humidity
    00:00 +24°C° 0 mm 3 mps 670 mmHg 50%
    01:00 +22°C° 0 mm 3 mps 670 mmHg 53%
    02:00 +21°C° 0 mm 2 mps 670 mmHg 55%
    03:00 +21°C° 0 mm 2 mps 669 mmHg 58%
    04:00 +21°C° 0 mm 2 mps 669 mmHg 59%
    05:00 +20°C° 0 mm 2 mps 669 mmHg 61%
    06:00 +20°C° 0 mm 2 mps 669 mmHg 62%
    07:00 +21°C° 0 mm 2 mps 670 mmHg 57%
    08:00 +23°C° 0 mm 2 mps 670 mmHg 52%
    09:00 +24°C° 0 mm 2 mps 671 mmHg 47%
    10:00 +25°C° 0 mm 2 mps 671 mmHg 44%
    11:00 +26°C° 0 mm 2 mps 671 mmHg 40%
    12:00 +27°C° 0 mm 2 mps 671 mmHg 37%
    13:00 +27°C° 0 mm 2 mps 671 mmHg 37%
    14:00 +27°C° 0 mm 2 mps 670 mmHg 36%
    15:00 +27°C° 0 mm 2 mps 670 mmHg 36%
    16:00 +26°C° 0.3 mm 3 mps 670 mmHg 38%
    17:00 +26°C° 0.3 mm 3 mps 670 mmHg 41%
    18:00 +25°C° 0.3 mm 3 mps 670 mmHg 44%
    19:00 +24°C° 1 mm 3 mps 671 mmHg 48%
    20:00 +24°C° 1 mm 3 mps 671 mmHg 53%
    21:00 +22°C° 1 mm 3 mps 671 mmHg 57%
    22:00 +21°C° 1.1 mm 3 mps 671 mmHg 60%
    23:00 +21°C° 1.1 mm 4 mps 671 mmHg 63%

    27 September, Thursday

    Time Temperature Precipitation Wind Pressure Humidity
    00:00 +20°C° 1.1 mm 4 mps 671 mmHg 66%
    01:00 +20°C° 0.1 mm 3 mps 671 mmHg 66%
    02:00 +20°C° 0.1 mm 3 mps 671 mmHg 67%
    03:00 +20°C° 0.1 mm 2 mps 671 mmHg 67%
    04:00 +19°C° 0 mm 3 mps 671 mmHg 69%
    05:00 +19°C° 0 mm 3 mps 671 mmHg 71%
    06:00 +19°C° 0 mm 4 mps 671 mmHg 73%
    07:00 +19°C° 0 mm 4 mps 671 mmHg 70%
    08:00 +20°C° 0 mm 5 mps 672 mmHg 68%
    09:00 +21°C° 0 mm 5 mps 672 mmHg 65%
    10:00 +21°C° 0 mm 5 mps 672 mmHg 61%
    11:00 +22°C° 0 mm 5 mps 672 mmHg 58%
    12:00 +23°C° 0 mm 5 mps 672 mmHg 54%
    13:00 +23°C° 0.1 mm 4 mps 671 mmHg 53%
    14:00 +23°C° 0.1 mm 4 mps 671 mmHg 52%
    15:00 +24°C° 0.1 mm 3 mps 671 mmHg 50%
    16:00 +24°C° 0 mm 3 mps 671 mmHg 51%
    17:00 +22°C° 0 mm 3 mps 671 mmHg 52%
    18:00 +23°C° 0 mm 2 mps 671 mmHg 53%
    19:00 +22°C° 0 mm 3 mps 671 mmHg 54%
    20:00 +21°C° 0 mm 3 mps 671 mmHg 56%
    21:00 +21°C° 0 mm 3 mps 671 mmHg 58%
    22:00 +21°C° 0 mm 2 mps 670 mmHg 60%
    23:00 +20°C° 0 mm 2 mps 670 mmHg 62%

    28 September, Friday

    Time Temperature Precipitation Wind Pressure Humidity
    00:00 +20°C° 0 mm 2 mps 670 mmHg 65%
    01:00 +19°C° 0 mm 2 mps 669 mmHg 66%
    02:00 +20°C° 0 mm 1 mps 669 mmHg 68%
    03:00 +20°C° 0 mm 1 mps 668 mmHg 70%
    04:00 +19°C° 0 mm 1 mps 668 mmHg 70%
    05:00 +19°C° 0 mm 1 mps 668 mmHg 71%
    06:00 +19°C° 0 mm 1 mps 668 mmHg 71%
    07:00 +20°C° 0 mm 1 mps 669 mmHg 66%
    08:00 +20°C° 0 mm 2 mps 669 mmHg 60%
    09:00 +23°C° 0 mm 2 mps 670 mmHg 54%
    10:00 +23°C° 0 mm 2 mps 669 mmHg 50%
    11:00 +24°C° 0 mm 2 mps 669 mmHg 46%
    12:00 +25°C° 0 mm 2 mps 669 mmHg 42%
    13:00 +25°C° 0 mm 2 mps 669 mmHg 41%
    14:00 +26°C° 0 mm 2 mps 668 mmHg 39%
    15:00 +26°C° 0 mm 3 mps 668 mmHg 38%
    16:00 +26°C° 0 mm 2 mps 668 mmHg 38%
    17:00 +26°C° 0 mm 2 mps 668 mmHg 38%
    18:00 +25°C° 0 mm 2 mps 668 mmHg 38%
    19:00 +25°C° 0 mm 2 mps 668 mmHg 40%
    20:00 +24°C° 0 mm 2 mps 668 mmHg 42%
    21:00 +24°C° 0 mm 2 mps 668 mmHg 44%
    22:00 +23°C° 0 mm 2 mps 668 mmHg 46%
    23:00 +23°C° 0 mm 2 mps 667 mmHg 48%

    29 September, Saturday

    Time Temperature Precipitation Wind Pressure Humidity
    00:00 +21°C° 0 mm 2 mps 667 mmHg 50%
    01:00 +21°C° 0 mm 1 mps 667 mmHg 51%
    02:00 +21°C° 0 mm 1 mps 666 mmHg 53%
    03:00 +21°C° 0 mm 1 mps 666 mmHg 54%
    04:00 +20°C° 0 mm 1 mps 666 mmHg 55%
    05:00 +20°C° 0 mm 1 mps 666 mmHg 56%
    06:00 +18°C° 0 mm 0 mps 666 mmHg 57%
    07:00 +21°C° 0 mm 1 mps 667 mmHg 53%
    08:00 +22°C° 0 mm 1 mps 667 mmHg 49%
    09:00 +24°C° 0 mm 1 mps 668 mmHg 45%
    10:00 +25°C° 0 mm 1 mps 668 mmHg 42%
    11:00 +25°C° 0 mm 1 mps 668 mmHg 38%
    12:00 +26°C° 0 mm 1 mps 667 mmHg 34%
    13:00 +26°C° 0 mm 1 mps 667 mmHg 33%
    14:00 +27°C° 0 mm 1 mps 667 mmHg 31%
    15:00 +27°C° 0 mm 1 mps 667 mmHg 30%
    16:00 +27°C° 0 mm 1 mps 667 mmHg 30%
    17:00 +27°C° 0 mm 1 mps 667 mmHg 31%
    18:00 +26°C° 0 mm 2 mps 667 mmHg 31%
    19:00 +26°C° 0 mm 2 mps 667 mmHg 32%
    20:00 +26°C° 0 mm 2 mps 668 mmHg 34%
    21:00 +25°C° 0 mm 2 mps 668 mmHg 35%
    22:00 +25°C° 0 mm 2 mps 668 mmHg 37%
    23:00 +24°C° 0 mm 2 mps 667 mmHg 39%
    Show more